Volver al catálogo

ARIANE 44L+ DEB

ActivoGTO
NORAD 34180·DEBRIS·🇫🇷 France

Lanzado Apr 15, 1992 desde Guiana Space Centre

Loading…

TLE

EnvejeciendoSource: Space-Track

Época: Sep 14, 2026, 11:49 UTC

1 34180U 92021W   26257.49258971 -.00000095  00000-0  00000-0 0  9992
2 34180   4.4069 231.6716 6931921 358.5471 267.7551  2.22442527188135

Sigue ARIANE 44L+ DEB en tiempo real con AllMySat

Download on the App Store